Time,TemperatureF,DewpointF,PressureIn,WindDirection,WindDirectionDegrees,WindSpeedMPH,WindSpeedGustMPH,Humidity,HourlyPrecipIn,Conditions,Clouds,dailyrainin,SoftwareType,DateUTC
2013-01-19 03:02:00,48.0,0.0,-100.00,WNW,293,28.0,34.0,13,-99.99,,,-99.99,,2013-01-19 10:02:00,
2013-01-19 03:12:00,47.0,-1.0,-100.00,West,274,20.0,25.0,13,-99.99,,,-99.99,,2013-01-19 10:12:00,
2013-01-19 03:22:00,47.0,-1.0,-100.00,West,274,20.0,25.0,13,-99.99,,,-99.99,,2013-01-19 10:22:00,
2013-01-19 03:32:00,46.0,-1.0,-100.00,NW,314,18.0,23.0,14,-99.99,,,-99.99,,2013-01-19 10:32:00,
2013-01-19 03:42:00,46.0,-1.0,-100.00,NW,321,17.0,18.0,14,-99.99,,,-99.99,,2013-01-19 10:42:00,
2013-01-19 03:52:00,46.0,-1.0,-100.00,NW,321,17.0,18.0,14,-99.99,,,-99.99,,2013-01-19 10:52:00,
2013-01-19 04:03:00,43.0,-1.0,-100.00,NW,317,11.0,13.0,15,-99.99,,,-99.99,,2013-01-19 11:03:00,
2013-01-19 04:12:00,42.0,0.0,-100.00,NNW,333,8.0,8.0,16,-99.99,,,-99.99,,2013-01-19 11:12:00,
2013-01-19 05:48:00,45.0,-1.0,-100.00,WNW,298,23.0,29.0,14,-99.99,,,-99.99,,2013-01-19 12:48:00,
2013-01-19 05:52:00,43.0,-1.0,-100.00,WNW,293,16.0,19.0,15,-99.99,,,-99.99,,2013-01-19 12:52:00,
2013-01-19 06:03:00,43.0,-2.0,-100.00,West,270,12.0,13.0,15,-99.99,,,-99.99,,2013-01-19 13:03:00,
2013-01-19 06:12:00,45.0,-2.0,-100.00,WSW,253,9.0,11.0,14,-99.99,,,-99.99,,2013-01-19 13:12:00,
2013-01-19 06:22:00,43.0,-2.0,-100.00,West,261,10.0,13.0,14,-99.99,,,-99.99,,2013-01-19 13:22:00,
2013-01-19 06:33:00,44.0,-1.0,-100.00,West,260,13.0,17.0,14,-99.99,,,-99.99,,2013-01-19 13:33:00,
2013-01-19 06:42:00,43.0,-1.0,-100.00,West,260,12.0,15.0,15,-99.99,,,-99.99,,2013-01-19 13:42:00,
2013-01-19 06:52:00,42.0,-1.0,-100.00,West,275,15.0,18.0,15,-99.99,,,-99.99,,2013-01-19 13:52:00,
2013-01-19 07:02:00,42.0,-1.0,-100.00,West,275,15.0,18.0,15,-99.99,,,-99.99,,2013-01-19 14:02:00,
2013-01-19 07:12:00,44.0,-1.0,-100.00,West,278,18.0,21.0,14,-99.99,,,-99.99,,2013-01-19 14:12:00,
2013-01-19 07:23:00,44.0,-1.0,-100.00,West,277,18.0,20.0,14,-99.99,,,-99.99,,2013-01-19 14:23:00,
2013-01-19 07:34:00,44.0,-1.0,-100.00,West,264,17.0,20.0,15,-99.99,,,-99.99,,2013-01-19 14:34:00,
2013-01-19 07:43:00,45.0,-1.0,-100.00,West,279,17.0,19.0,14,-99.99,,,-99.99,,2013-01-19 14:43:00,
2013-01-19 07:53:00,45.0,-1.0,-100.00,West,279,17.0,19.0,14,-99.99,,,-99.99,,2013-01-19 14:53:00,
2013-01-19 08:03:00,45.0,-1.0,-100.00,West,279,17.0,19.0,14,-99.99,,,-99.99,,2013-01-19 15:03:00,
2013-01-19 08:12:00,45.0,-1.0,-100.00,West,267,14.0,17.0,14,-99.99,,,-99.99,,2013-01-19 15:12:00,
2013-01-19 08:23:00,45.0,-1.0,-100.00,West,267,14.0,17.0,14,-99.99,,,-99.99,,2013-01-19 15:23:00,
2013-01-19 08:33:00,45.0,-1.0,-100.00,West,267,14.0,17.0,14,-99.99,,,-99.99,,2013-01-19 15:33:00,
2013-01-19 08:43:00,45.0,-1.0,-100.00,West,267,14.0,17.0,14,-99.99,,,-99.99,,2013-01-19 15:43:00,
2013-01-19 08:53:00,45.0,-1.0,-100.00,West,267,14.0,17.0,14,-99.99,,,-99.99,,2013-01-19 15:53:00,
2013-01-19 09:03:00,48.0,-1.0,-100.00,WSW,249,14.0,17.0,12,-99.99,,,-99.99,,2013-01-19 16:03:00,
2013-01-19 09:13:00,48.0,-1.0,-100.00,WSW,249,14.0,17.0,12,-99.99,,,-99.99,,2013-01-19 16:13:00,
2013-01-19 09:23:00,48.0,-1.0,-100.00,WSW,249,14.0,17.0,12,-99.99,,,-99.99,,2013-01-19 16:23:00,
2013-01-19 09:33:00,48.0,-1.0,-100.00,WSW,249,14.0,17.0,12,-99.99,,,-99.99,,2013-01-19 16:33:00,
2013-01-19 09:43:00,48.0,-1.0,-100.00,WSW,249,14.0,17.0,12,-99.99,,,-99.99,,2013-01-19 16:43:00,
2013-01-19 16:13:00,57.0,-7.0,-100.00,West,274,15.0,20.0,6,-99.99,,,-99.99,,2013-01-19 23:13:00,
2013-01-19 16:25:00,57.0,-7.0,-100.00,West,274,15.0,20.0,6,-99.99,,,-99.99,,2013-01-19 23:25:00,
2013-01-19 16:34:00,57.0,-7.0,-100.00,West,274,15.0,20.0,6,-99.99,,,-99.99,,2013-01-19 23:34:00,
2013-01-19 16:45:00,57.0,-7.0,-100.00,West,274,15.0,20.0,6,-99.99,,,-99.99,,2013-01-19 23:45:00,
2013-01-19 21:28:00,46.0,-5.0,-100.00,SSW,193,0.0,2.0,11,-99.99,,,-99.99,,2013-01-20 04:28:00,
2013-01-19 21:38:00,46.0,-5.0,-100.00,SSW,193,0.0,2.0,11,-99.99,,,-99.99,,2013-01-20 04:38:00,
2013-01-19 21:45:00,46.0,-4.0,-100.00,WNW,282,21.0,26.0,11,-99.99,,,-99.99,,2013-01-20 04:45:00,
2013-01-19 21:57:00,46.0,-4.0,-100.00,WNW,282,21.0,26.0,11,-99.99,,,-99.99,,2013-01-20 04:57:00,
2013-01-19 22:04:00,46.0,-4.0,-100.00,WNW,282,21.0,26.0,11,-99.99,,,-99.99,,2013-01-20 05:04:00,
2013-01-19 22:12:00,46.0,-4.0,-100.00,WNW,282,21.0,26.0,11,-99.99,,,-99.99,,2013-01-20 05:12:00,
2013-01-19 22:22:00,46.0,-4.0,-100.00,WNW,282,21.0,26.0,11,-99.99,,,-99.99,,2013-01-20 05:22:00,